Find Starlink 34464

NORAD ID: 64664 Int'l Des: 2025-139 Owner: SPXS Country: US Constellation: starlink operational
LEOCIRCULAR

当前视图

正在加载3D地球...

About Starlink 34464

Starlink 34464 (NORAD 64664) is a starlink constellation satellite (v2 mini) launched Jun 28, 2025 by SPXS of US. It operates in LEO, CIRCULAR orbit with a mass of 575.00 kg.

即将过境

Passes for default location (London). Set your location on the main map for personalized predictions.

高度历史

Loading altitude history...

两行轨道根数

1 64664U 25139A 26263.25986965 .00009446 00000-0 29035-3 0 9990
2 64664 53.1579 299.0323 0001155 81.8090 278.3043 15.34399137 70137
Epoch: Sep 20, 2026 • Age: 25 hours

当前状态

高度 475.4 km
远地点 / 近地点 N/A
速度 7.63 km/s
星下点 -37.76°S, 153.29°E
发射日期 Jun 28, 2025
运行时间 1.2 years
类型 internet

技术详情

分类 Payload
质量 575.00 kg
干质量 530.00 kg
长度 0.30 m
跨度 29.00 m
形状 ? Box + pan
制造商 SPXS
平台类型 Starlink V2MO
阶段状态 In Orbit
所有者/国家 SPXS/US

Most Searched